STARLINK-1665, 46356

Orbit data source: Space-Track

STARLINK-1665, 46356 is a payload satellite owned by SpaceX/Seattle (US) in LEO that was launched on Thu, 03 Sep 2020 UTC via an FALCON 9 launch vehicle from the Air Force Eastern Test Range (AFETR). Payloads include a variety of satellites, spacecraft, and rockets equipped with specific instruments for various scientific and technological missions. These include communications satellites like Starlink; space stations such as the ISS; scientific satellites like the Hubble; Earth observation satellites from companies like Planet Labs, Umbra, and HawkEye 360; GPS; miniature CubeSats for education and research; and military/defense satellites.

Loading next visibility...
STARLINK-1665 details
Identifier
46356, 2020-062AH
Orbit
LEO
Last TLE update13 hours ago
Origin
Flag of USSpaceX/Seattle (US)
ManufacturerSpaceX/Seattle
MissionOperational Commercial Communications
Bus & MotorSTARLINK, Unknown motor
Mass260 kg wet, ~248 kg dry
Launch date (UTC)
2020-09-03 (4 years ago)
Launch vehicle
FALCON 9
Launch site
Air Force Eastern Test Range (AFETR)
Object type
Payload
Rocket body
Debris
Shape & HBRBox + 1 Pan, 8.86 m
Radar Cross Section13.562 m², Large (>1 m²)

Expand to show TLE details & history

TLE from 13 hours ago
0 STARLINK-1665
1 46356U 20062AH  24360.90217216  .00002845  00000-0  20981-3 0  9999
2 46356  53.0543 186.4492 0001446  95.8474 264.2679 15.06404140238354
Epoch: 2024-12-25T21:39Z
Definitive object data (Epoch: 2024-12-25T21:39:07.674Z)
Latitude-0.0001°
Longitude126.77789°
Altitude548.178 km
Speed7.589 km/s
True Right ascension12h 25m 47s
True Declination0° 00' 00"
Sunlit
Object was in daylight at TLE epoch
Visualization TLE readout
Latitude53.19442°
Longitude-144.06567°
Altitude552.743 km
Speed7.592 km/s
Apparent Right ascension20h 25m 39s
Apparent Declination10° 19' 46"
Sunlit
Object is in daylight
Visualization observer readout
Local Sidereal Time10:08:47
Azimuth31.224° NE
Elevation-34.359°
Doppler factor1
Orbital elements
Apogee altitude548.471 km
Perigee altitude546.468 km
Semi-major axis6,925.607 km
Eccentricity0.0001446
Inclination53.0543°
RAAN186.4492°
Arg. of periapsis95.8474°
True anomaly264.25141°
Mean anomaly264.2679°
Eccentric anomaly264.25966°
Mean motion3.76579 °/min
BSTAR0.00020981
Orbital period95.6 mins
Loading maneuver chart data...
Loading historical data...
Loading historical data...
Loading historical data...
Loading historical data...
Loading historical data...
Loading historical data...
Loading historical data...

STARLINK-1665 Visibility forecast

Observer location: undefined°, undefined

Span
Click to sort rows by Start time (UTC) header in descending order
Start Az.
Max El. time (UTC)
Max El. Az.
Max El.
End time (UTC)
End Az.
6 mins2024-12-26 15:21:33.034Z227.491° WSW2024-12-26 15:24:33.034Z57.545° ENE43.256°2024-12-26 15:27:33.034Z50.934° ENE
4 mins2024-12-26 17:02:33.034Z307.648° NW2024-12-26 17:04:33.034Z348.4° N19.764°2024-12-26 17:06:33.034Z21.897° NNE
4 mins2024-12-26 20:24:33.034Z358.814° N2024-12-26 20:25:33.034Z18.843° NNE19.296°2024-12-26 20:28:33.034Z68.573° E
6 mins2024-12-26 22:03:33.034Z312.327° NW2024-12-26 22:05:33.034Z352.652° N44.779°2024-12-26 22:09:33.034Z128.913° SE
|